When you browse on this site, cookies collect data to enhance your experience and personalize the content and advertising you see.
Visit our Privacy Policy to learn more. By continuing to use the site, you agree to this use of cookies and data.
  • en Suisse
  • Liste des pays
  • À 7 jours
  • Température de l'eau
  • Carte météo
  • Widgets météo
  • user-avatar
    Se connecter

    Météo par heure à Lincoln

    Ce jour, 6 Juin, Samedi

    Heure Température Précipitation Vent Pression Humidité
    00:00 +4°C° 0 mm 6 m/s 740 mmHg 70%
    01:00 +4°C° 0 mm 7 m/s 740 mmHg 71%
    02:00 +5°C° 0 mm 8 m/s 740 mmHg 72%
    03:00 +5°C° 0 mm 9 m/s 739 mmHg 73%
    04:00 +5°C° 0.6 mm 9 m/s 738 mmHg 78%
    05:00 +5°C° 0.6 mm 9 m/s 738 mmHg 83%
    06:00 +5°C° 0.6 mm 9 m/s 737 mmHg 88%
    07:00 +6°C° 0.7 mm 8 m/s 737 mmHg 85%
    08:00 +9°C° 0.7 mm 7 m/s 737 mmHg 82%
    09:00 +10°C° 0.7 mm 6 m/s 737 mmHg 80%
    10:00 +11°C° 0.4 mm 7 m/s 738 mmHg 78%
    11:00 +11°C° 0.4 mm 8 m/s 738 mmHg 76%
    12:00 +11°C° 0.4 mm 8 m/s 738 mmHg 74%
    13:00 +11°C° 0.5 mm 8 m/s 739 mmHg 75%
    14:00 +12°C° 0.5 mm 8 m/s 739 mmHg 76%
    15:00 +12°C° 0.5 mm 8 m/s 740 mmHg 78%
    16:00 +11°C° 0.4 mm 7 m/s 740 mmHg 79%
    17:00 +11°C° 0.4 mm 7 m/s 741 mmHg 81%
    18:00 +10°C° 0.4 mm 6 m/s 741 mmHg 82%
    19:00 +9°C° 0 mm 5 m/s 742 mmHg 84%
    20:00 +8°C° 0 mm 5 m/s 743 mmHg 86%
    21:00 +7°C° 0 mm 4 m/s 744 mmHg 88%
    22:00 +6°C° 0 mm 4 m/s 745 mmHg 89%
    23:00 +7°C° 0 mm 3 m/s 745 mmHg 90%

    Demain, 7 Juin, Dimanche

    Heure Température Précipitation Vent Pression Humidité
    00:00 +5°C° 0 mm 3 m/s 746 mmHg 91%
    01:00 +5°C° 0 mm 3 m/s 746 mmHg 91%
    02:00 +5°C° 0 mm 3 m/s 746 mmHg 91%
    03:00 +6°C° 0 mm 2 m/s 747 mmHg 91%
    04:00 +7°C° 0.1 mm 2 m/s 747 mmHg 90%
    05:00 +8°C° 0.1 mm 2 m/s 747 mmHg 89%
    06:00 +9°C° 0.1 mm 2 m/s 748 mmHg 88%
    07:00 +9°C° 0.5 mm 2 m/s 748 mmHg 90%
    08:00 +10°C° 0.5 mm 3 m/s 749 mmHg 91%
    09:00 +10°C° 0.5 mm 3 m/s 749 mmHg 93%
    10:00 +11°C° 0.2 mm 4 m/s 749 mmHg 91%
    11:00 +12°C° 0.2 mm 4 m/s 750 mmHg 89%
    12:00 +12°C° 0.2 mm 5 m/s 750 mmHg 87%
    13:00 +12°C° 0.2 mm 5 m/s 751 mmHg 88%
    14:00 +11°C° 0.2 mm 6 m/s 751 mmHg 88%
    15:00 +11°C° 0.2 mm 6 m/s 751 mmHg 89%
    16:00 +11°C° 0.1 mm 6 m/s 752 mmHg 88%
    17:00 +11°C° 0.1 mm 6 m/s 752 mmHg 88%
    18:00 +11°C° 0.1 mm 6 m/s 752 mmHg 87%
    19:00 +10°C° 0 mm 6 m/s 753 mmHg 88%
    20:00 +10°C° 0 mm 6 m/s 754 mmHg 89%
    21:00 +9°C° 0 mm 5 m/s 755 mmHg 90%
    22:00 +9°C° 0 mm 5 m/s 755 mmHg 89%
    23:00 +9°C° 0 mm 5 m/s 755 mmHg 88%

    Après-demain, 8 Juin, Lundi

    Heure Température Précipitation Vent Pression Humidité
    00:00 +10°C° 0 mm 4 m/s 756 mmHg 87%
    01:00 +8°C° 0 mm 4 m/s 756 mmHg 87%
    02:00 +8°C° 0 mm 4 m/s 756 mmHg 87%
    03:00 +8°C° 0 mm 4 m/s 756 mmHg 87%
    04:00 +8°C° 0 mm 4 m/s 756 mmHg 86%
    05:00 +8°C° 0 mm 4 m/s 757 mmHg 86%
    06:00 +8°C° 0 mm 5 m/s 757 mmHg 85%
    07:00 +9°C° 0 mm 5 m/s 758 mmHg 82%
    08:00 +9°C° 0 mm 5 m/s 758 mmHg 79%
    09:00 +10°C° 0 mm 5 m/s 758 mmHg 76%
    10:00 +12°C° 0.1 mm 5 m/s 759 mmHg 73%
    11:00 +12°C° 0.1 mm 5 m/s 759 mmHg 71%
    12:00 +12°C° 0.1 mm 4 m/s 759 mmHg 68%
    13:00 +12°C° 0 mm 4 m/s 759 mmHg 68%
    14:00 +12°C° 0 mm 4 m/s 759 mmHg 68%
    15:00 +12°C° 0 mm 4 m/s 759 mmHg 68%
    16:00 +12°C° 0 mm 4 m/s 759 mmHg 69%
    17:00 +11°C° 0 mm 4 m/s 759 mmHg 70%
    18:00 +11°C° 0 mm 4 m/s 759 mmHg 71%
    19:00 +10°C° 0 mm 3 m/s 759 mmHg 75%
    20:00 +9°C° 0 mm 3 m/s 760 mmHg 80%
    21:00 +7°C° 0 mm 2 m/s 760 mmHg 84%
    22:00 +6°C° 0 mm 2 m/s 760 mmHg 86%
    23:00 +6°C° 0 mm 2 m/s 760 mmHg 88%

    9 Juin, Mardi

    Heure Température Précipitation Vent Pression Humidité
    00:00 +5°C° 0 mm 2 m/s 760 mmHg 91%
    01:00 +4°C° 0 mm 2 m/s 760 mmHg 91%
    02:00 +4°C° 0 mm 2 m/s 760 mmHg 91%
    03:00 +4°C° 0 mm 2 m/s 760 mmHg 92%
    04:00 +5°C° 0 mm 2 m/s 761 mmHg 89%
    05:00 +6°C° 0 mm 2 m/s 761 mmHg 86%
    06:00 +7°C° 0 mm 2 m/s 761 mmHg 82%
    07:00 +8°C° 0 mm 2 m/s 761 mmHg 75%
    08:00 +10°C° 0 mm 2 m/s 761 mmHg 69%
    09:00 +12°C° 0 mm 2 m/s 761 mmHg 62%
    10:00 +13°C° 0 mm 2 m/s 761 mmHg 61%
    11:00 +14°C° 0 mm 2 m/s 761 mmHg 59%
    12:00 +15°C° 0 mm 2 m/s 761 mmHg 58%
    13:00 +15°C° 0 mm 2 m/s 761 mmHg 59%
    14:00 +15°C° 0 mm 2 m/s 761 mmHg 60%
    15:00 +15°C° 0 mm 2 m/s 761 mmHg 61%
    16:00 +15°C° 0 mm 2 m/s 761 mmHg 64%
    17:00 +15°C° 0 mm 2 m/s 761 mmHg 66%
    18:00 +15°C° 0 mm 2 m/s 761 mmHg 68%
    19:00 +13°C° 0 mm 2 m/s 761 mmHg 75%
    20:00 +10°C° 0 mm 2 m/s 761 mmHg 82%
    21:00 +8°C° 0 mm 2 m/s 762 mmHg 89%
    22:00 +7°C° 0 mm 2 m/s 762 mmHg 89%
    23:00 +7°C° 0 mm 2 m/s 762 mmHg 90%

    10 Juin, Mercredi

    Heure Température Précipitation Vent Pression Humidité
    00:00 +6°C° 0 mm 2 m/s 762 mmHg 90%
    01:00 +6°C° 0 mm 2 m/s 762 mmHg 90%
    02:00 +6°C° 0 mm 2 m/s 762 mmHg 91%
    03:00 +6°C° 0 mm 2 m/s 762 mmHg 91%
    04:00 +7°C° 0 mm 2 m/s 762 mmHg 88%
    05:00 +8°C° 0 mm 2 m/s 762 mmHg 85%
    06:00 +9°C° 0 mm 2 m/s 762 mmHg 82%
    07:00 +12°C° 0 mm 2 m/s 762 mmHg 77%
    08:00 +14°C° 0 mm 2 m/s 763 mmHg 72%
    09:00 +16°C° 0 mm 2 m/s 763 mmHg 67%
    10:00 +17°C° 0 mm 2 m/s 763 mmHg 65%
    11:00 +17°C° 0 mm 2 m/s 762 mmHg 62%
    12:00 +18°C° 0 mm 2 m/s 762 mmHg 59%
    13:00 +19°C° 0 mm 2 m/s 762 mmHg 60%
    14:00 +19°C° 0 mm 2 m/s 762 mmHg 61%
    15:00 +19°C° 0 mm 2 m/s 762 mmHg 62%
    16:00 +19°C° 0 mm 2 m/s 762 mmHg 65%
    17:00 +19°C° 0 mm 2 m/s 762 mmHg 69%
    18:00 +19°C° 0 mm 2 m/s 762 mmHg 72%
    19:00 +17°C° 0 mm 2 m/s 762 mmHg 75%
    20:00 +15°C° 0 mm 2 m/s 763 mmHg 78%
    21:00 +14°C° 0 mm 2 m/s 763 mmHg 81%
    22:00 +13°C° 0 mm 2 m/s 763 mmHg 82%
    23:00 +13°C° 0 mm 1 m/s 763 mmHg 82%

    11 Juin, Jeudi

    Heure Température Précipitation Vent Pression Humidité
    00:00 +12°C° 0 mm 1 m/s 763 mmHg 82%
    01:00 +12°C° 0 mm 1 m/s 763 mmHg 81%
    02:00 +11°C° 0 mm 1 m/s 763 mmHg 81%
    03:00 +10°C° 0 mm 2 m/s 763 mmHg 80%
    04:00 +12°C° 0 mm 2 m/s 763 mmHg 80%
    05:00 +12°C° 0 mm 2 m/s 763 mmHg 80%
    06:00 +13°C° 0 mm 2 m/s 763 mmHg 80%
    07:00 +15°C° 0 mm 2 m/s 763 mmHg 77%
    08:00 +16°C° 0 mm 2 m/s 763 mmHg 74%
    09:00 +18°C° 0 mm 2 m/s 763 mmHg 72%
    10:00 +18°C° 0 mm 2 m/s 763 mmHg 71%
    11:00 +19°C° 0 mm 2 m/s 763 mmHg 70%
    12:00 +20°C° 0 mm 2 m/s 762 mmHg 70%
    13:00 +20°C° 0 mm 3 m/s 762 mmHg 70%
    14:00 +20°C° 0 mm 3 m/s 762 mmHg 69%
    15:00 +20°C° 0 mm 3 m/s 762 mmHg 69%
    16:00 +20°C° 0 mm 3 m/s 762 mmHg 71%
    17:00 +19°C° 0 mm 3 m/s 762 mmHg 74%
    18:00 +18°C° 0 mm 4 m/s 762 mmHg 76%
    19:00 +16°C° 0 mm 3 m/s 762 mmHg 81%
    20:00 +13°C° 0 mm 3 m/s 763 mmHg 86%
    21:00 +13°C° 0 mm 2 m/s 763 mmHg 91%
    22:00 +12°C° 0 mm 2 m/s 763 mmHg 91%
    23:00 +10°C° 0 mm 2 m/s 763 mmHg 92%
    Voir plus